This demonstration page uses our WeatherBlox Daily Observations layout. Learn more.

Left ArrowRight Arrow

41.12389, -100.76542

Hourly Observations for December 7, 2016

Temp ( °F °C ) Dew Point ( °F °C ) Humidity (%) Winds ( mph kmh ) Pressure ( in mb ) Visibility ( mi km ) Precip ( " mm )
12:53 am 00:53 Mostly Clear 15 -9.4 2 -16.7 56 56 ENE 5 7 30.19 1022 10 16 0.00 0.00
1:53 am 01:53 Mostly Cloudy 14 -10 2 -16.7 58 58 Calm 30.25 1024 10 16 0.00 0.00
2:53 am 02:53 Cloudy 14 -10 2 -16.7 58 58 N 12 19 30.25 1024 10 16 0.00 0.00
3:53 am 03:53 Cloudy 13 -10.6 1 -17.2 59 59 N 9 15 30.27 1025 10 16 0.00 0.00
4:53 am 04:53 Cloudy 13 -10.6 2 -16.7 61 61 N 13 20 30.29 1026 8 13 0.00 0.03
5:53 am 05:53 Cloudy 13 -10.6 1 -17.2 59 59 N 14 22 30.32 1027 9 14 0.00 0.00
6:53 am 06:53 Cloudy with Light Snow 13 -10.6 2 -16.7 61 61 N 13 20 30.35 1028 5 8 0.00 0.03
7:00 am 07:00 Cloudy with Light Snow 12 -11 3 -16 67 67 NNW 13 20 30.48 1032 3 4 0.00 0.00
7:20 am 07:20 Cloudy with Light Snow 12 -11 1 -17 62 62 N 13 20 30.48 1032 5 8 0.00 0.00
7:53 am 07:53 Cloudy with Light Snow 13 -10.6 2 -16.7 61 61 NNW 10 17 30.37 1029 5 8 0.00 0.03
8:07 am 08:07 Cloudy 13 -10.6 2 -16.7 61 61 N 10 17 30.50 1033 9 14 0.00 0.03
8:53 am 08:53 Cloudy 13 -10.6 1 -17.2 59 59 N 13 20 30.41 1030 10 16 0.00 0.03
9:53 am 09:53 Cloudy with Light Snow 13 -10.6 5 -15 70 70 N 13 20 30.45 1031 3 5 0.00 0.03
10:01 am 10:01 Cloudy with Light Snow 13 -10.6 5 -15 70 70 N 14 22 30.56 1035 3 5 0.00 0.03
10:08 am 10:08 Cloudy with Light Snow 12 -11 5 -15 73 73 NNW 12 19 30.56 1035 3 4 0.00 0.00
10:18 am 10:18 Cloudy with Light Snow 12 -11 5 -15 73 73 NNW 15 24 30.56 1035 2 2 0.00 0.00
10:30 am 10:30 Cloudy with Light Snow 12 -11 7 -14 79 79 NNW 13 20 30.56 1035 2 3 0.00 0.00
10:42 am 10:42 Cloudy with Light Snow 13 -10.6 6 -14.4 74 74 N 13 20 30.56 1035 2 2 0.00 0.03
10:50 am 10:50 Cloudy with Light Snow 14 -10 7 -14 73 73 N 13 20 30.56 1035 1 2 0.00 0.00
10:53 am 10:53 Cloudy with Light Snow 14 -10 6 -14.4 71 71 NNW 13 20 30.47 1032 1 2 0.00 0.03
11:11 am 11:11 Cloudy with Light Snow 14 -10 7 -14 73 73 N 13 20 30.56 1035 2 2 0.00 0.00
11:25 am 11:25 Cloudy with Light Snow 16 -9 7 -14 67 67 NNW 12 19 30.53 1034 2 3 0.00 0.00
11:31 am 11:31 Cloudy with Light Snow 16 -9 7 -14 67 67 NNW 12 19 30.53 1034 3 5 0.00 0.00
11:53 am 11:53 Cloudy with Light Snow 16 -8.9 7 -13.9 67 67 NNW 16 26 30.46 1031 4 6 0.01 0.25
12:53 pm 12:53 Cloudy 19 -7.2 3 -16.1 49 49 NNW 13 20 30.45 1031 10 16 0.00 0.03
1:53 pm 13:53 Mostly Cloudy 21 -6.1 4 -15.6 47 47 NW 14 22 30.44 1031 10 16 0.00 0.00
2:53 pm 14:53 Cloudy 21 -6.1 3 -16.1 45 45 NNW 15 24 30.45 1031 10 16 0.00 0.00
3:53 pm 15:53 Partly Cloudy 22 -5.6 3 -16.1 44 44 NNW 12 19 30.47 1032 10 16 0.00 0.00
4:53 pm 16:53 Mostly Sunny 18 -7.8 5 -15 57 57 NW 10 17 30.50 1033 10 16 0.00 0.00
5:53 pm 17:53 Clear 13 -10.6 5 -15 70 70 NW 8 13 30.54 1034 10 16 0.00 0.00
6:53 pm 18:53 Clear 9 -12.8 1 -17.2 70 70 NW 8 13 30.59 1036 10 16 0.00 0.00
7:53 pm 19:53 Clear 6 -14.4 -1 -18.3 73 73 WNW 8 13 30.62 1037 10 16 0.00 0.00
8:53 pm 20:53 Clear 5 -15 0 -17.8 79 79 NW 8 13 30.64 1038 10 16 0.00 0.00
9:53 pm 21:53 Clear 4 -15.6 -1 -18.3 80 80 NW 7 11 30.65 1038 10 16 0.00 0.00
10:53 pm 22:53 Clear 4 -15.6 -1 -18.3 80 80 WNW 9 15 30.68 1039 10 16 0.00 0.00
11:53 pm 23:53 Clear 5 -15 -1 -18.3 76 76 NW 9 15 30.68 1039 10 16 0.00 0.00

Powered by AerisWeather